{"data":{"norad_id":64392,"intl_designator":"2025-127Y","name":"STARLINK-33802","alt_names":[],"object_type":"PAYLOAD","status":"ACTIVE","operator":null,"country":"US","launch_date":"2025-06-13","launch_site_code":"AFETR","launch_vehicle":null,"mission":null,"orbit_class":"UNKNOWN","rcs_meters":null,"size_class":null,"mass_kg":null,"dimensions":null,"purposes":["comms"],"wikipedia_slug":null,"has_3d_model":false,"image_url":null,"decayed_at":null,"tle_current":{"epoch":"2026-05-25T04:40:04.711872Z","epoch_age_seconds":55706,"freshness":"FRESH","line1":"1 64392U 25127Y   26145.19449898  .00019053  00000+0  69996-3 0  9990","line2":"2 64392  42.9958 108.0527 0000988 281.2268  78.8472 15.27585868 54213","mean_motion":15.27585868,"eccentricity":9.88e-5,"inclination_deg":42.9958,"raan_deg":108.0527,"arg_perigee_deg":281.2268,"mean_anomaly_deg":78.8472,"bstar":0.00069996,"rev_number":5421,"period_min":94.266386601581,"perigee_km":482.35364174261,"apogee_km":483.70940864319,"semimajor_km":6861.1685251929,"source":"CELESTRAK","updated_at":"2026-05-25T13:38:20.416002Z"}}}